KORGOLDH4 Weather Reports


time (UTC)temp
C
wind
direction
speed
KPH
gust
KPH
rain 1hr
cm
rain 24hr
cm
rain mn
cm
humidity
%
barometer
mb
20260509112511 8 0.0 0.0 0.00 0.00 0.00 1 1017.8
20260509112011 8 0.0 0.0 0.00 0.00 0.00 1 1017.9
20260509111510 8 0.0 0.0 0.00 0.00 0.00 1 1018.0
20260509110510 8 0.0 0.0 0.00 0.00 0.00 1 1018.0
20260509110010 8 0.0 0.0 0.00 0.00 0.00 1 1017.9
20260509105510 8 0.0 0.0 0.00 0.00 0.00 1 1017.9
20260509105013 8 0.0 0.0 0.00 0.00 0.00 1 1017.9
20260509104513 8 0.0 0.0 0.00 0.00 0.00 1 1017.9
20260509104013 8 0.0 0.0 0.00 0.00 0.00 1 1017.9
20260509103513 8 0.0 0.0 0.00 0.00 0.00 1 1017.8
20260509103012 8 0.0 0.0 0.00 0.00 0.00 1 1017.8
20260509102512 8 0.0 0.0 0.00 0.00 0.00 1 1017.7
20260509081012 12 0.0 0.0 0.00 0.00 0.00 1 1017.8
20260509080513 12 0.0 0.0 0.00 0.00 0.00 1 1017.8
20260509080012 12 0.0 0.0 0.00 0.00 0.00 1 1017.8
20260509075512 12 0.0 0.0 0.00 0.00 0.00 1 1017.8
20260509075013 12 0.0 0.0 0.00 0.00 0.00 1 1017.7
20260509074513 12 0.0 0.0 0.00 0.00 0.00 1 1017.6
20260509074013 12 0.0 0.0 0.00 0.00 0.00 2 1017.7
20260509073513 12 0.0 0.0 0.00 0.00 0.00 1 1017.7
20260509073013 12 0.0 0.0 0.00 0.00 0.00 3 1017.6
20260509072513 12 0.0 0.0 0.00 0.00 0.00 1 1017.6
20260509072012 13 0.0 0.0 0.00 0.00 0.00 1 1017.7
20260509071013 13 0.0 0.0 0.00 0.00 0.00 5 1017.6
20260509070512 13 0.0 0.0 0.00 0.00 0.00 5 1017.6
20260509070013 13 0.0 0.0 0.00 0.00 0.00 3 1017.6
20260509065513 13 0.0 0.0 0.00 0.00 0.00 12 1017.6
20260509065012 13 0.0 0.0 0.00 0.00 0.00 16 1017.6
20260509064512 13 0.0 0.0 0.00 0.00 0.00 14 1017.6
20260509063513 13 0.0 0.0 0.00 0.00 0.00 23 1017.6
20260509063012 13 0.0 0.0 0.00 0.00 0.00 26 1017.5
20260509062512 13 0.0 0.0 0.00 0.00 0.00 28 1017.6
20260509062012 13 0.0 0.0 0.00 0.00 0.00 28 1017.6
20260509061013 13 0.0 0.0 0.00 0.00 0.00 30 1017.5
20260509060012 14 0.0 0.0 0.00 0.00 0.00 26 1017.6
20260509055513 14 0.0 0.0 0.00 0.00 0.00 30 1017.6
20260509055013 14 0.0 0.0 0.00 0.00 0.00 32 1017.5
20260509054013 15 0.0 0.0 0.00 0.00 0.00 31 1017.5
20260509053513 15 0.0 0.0 0.00 0.00 0.00 34 1017.4
20260509053013 15 0.0 0.0 0.00 0.00 0.00 36 1017.4
20260509052512 15 0.0 0.0 0.00 0.00 0.00 34 1017.4
20260509052012 15 0.0 0.0 0.00 0.00 0.00 35 1017.3
20260509050012 16 0.0 0.0 0.00 0.00 0.00 37 1017.2
20260509045512 16 0.0 0.0 0.00 0.00 0.00 39 1017.1
20260509044512 17 0.0 0.0 0.00 0.00 0.00 47 1016.7
20260509043512 17 0.0 0.0 0.00 0.00 0.00 50 1016.5
20260509043013 18 0.0 0.0 0.00 0.00 0.00 51 1016.5
20260509041512 18 0.0 0.0 0.00 0.00 0.00 52 1016.3
20260509041013 19 0.0 0.0 0.00 0.00 0.00 53 1016.2
20260509040013 20 0.0 0.0 0.00 0.00 0.00 52 1016.0
20260509035512 20 0.0 0.0 0.00 0.00 0.00 52 1015.9
20260509034512 20 0.0 0.0 0.00 0.00 0.00 51 1015.9
20260509034012 20 0.0 0.0 0.00 0.00 0.00 50 1015.8
20260509033512 21 0.0 0.0 0.00 0.00 0.00 50 1015.7
20260509033012 21 0.0 0.0 0.00 0.00 0.00 49 1015.6
20260509032512 21 0.0 0.0 0.00 0.00 0.00 47 1015.6
20260509032012 21 0.0 0.0 0.00 0.00 0.00 47 1015.4
20260509031512 22 0.0 0.0 0.00 0.00 0.00 47 1015.3
20260509031013 22 0.0 0.0 0.00 0.00 0.00 47 1015.2
20260509030512 22 0.0 0.0 0.00 0.00 0.00 46 1015.1
20260509030012 22 0.0 0.0 0.00 0.00 0.00 46 1015.0
20260509025512 22 0.0 0.0 0.00 0.00 0.00 46 1014.9
20260509025012 22 0.0 0.0 0.00 0.00 0.00 46 1014.9
20260509024512 23 0.0 0.0 0.00 0.00 0.00 46 1014.9
20260509024013 23 0.0 0.0 0.00 0.00 0.00 45 1014.7
20260509023512 23 0.0 0.0 0.00 0.00 0.00 45 1014.7
20260509023012 23 0.0 0.0 0.00 0.00 0.00 45 1014.6
20260509022512 23 0.0 0.0 0.00 0.00 0.00 44 1014.5
20260509022012 23 0.0 0.0 0.00 0.00 0.00 44 1014.4
20260509021512 23 0.0 0.0 0.00 0.00 0.00 45 1014.4
20260509020512 24 0.0 0.0 0.00 0.00 0.00 44 1014.2
20260509020011 25 0.0 0.0 0.00 0.00 0.00 44 1014.2
20260509015512 25 0.0 0.0 0.00 0.00 0.00 41 1014.2
20260509015012 25 0.0 0.0 0.00 0.00 0.00 44 1014.1
20260509014511 25 0.0 0.0 0.00 0.00 0.00 42 1015.0
20260509014012 25 0.0 0.0 0.00 0.00 0.00 41 1014.9
20260509013512 26 0.0 0.0 0.00 0.00 0.00 40 1014.9
20260509013012 26 0.0 0.0 0.00 0.00 0.00 39 1014.9
20260509012512 26 0.0 0.0 0.00 0.00 0.00 39 1013.9
20260509012012 27 0.0 0.0 0.00 0.00 0.00 39 1014.0
20260509011512 27 0.0 0.0 0.00 0.00 0.00 36 1013.9
20260509011013 27 0.0 0.0 0.00 0.00 0.00 36 1013.9
20260509010512 28 0.0 0.0 0.00 0.00 0.00 36 1013.8
20260509010012 28 0.0 0.0 0.00 0.00 0.00 34 1013.9
20260509005512 28 0.0 0.0 0.00 0.00 0.00 30 1013.9
20260509005012 28 0.0 0.0 0.00 0.00 0.00 27 1014.0
20260509004511 28 0.0 0.0 0.00 0.00 0.00 27 1013.9
20260509003512 28 0.0 0.0 0.00 0.00 0.00 30 1013.9
20260509003013 28 0.0 0.0 0.00 0.00 0.00 29 1014.0
20260509002512 28 0.0 0.0 0.00 0.00 0.00 29 1014.0
20260509002012 28 0.0 0.0 0.00 0.00 0.00 28 1014.0
20260509001512 28 0.0 0.0 0.00 0.00 0.00 28 1014.0
20260509001012 28 0.0 0.0 0.00 0.00 0.00 28 1014.0
20260509000512 28 0.0 0.0 0.00 0.00 0.00 28 1014.0
20260509000012 28 0.0 0.0 0.00 0.00 0.00 28 1014.1
20260508235512 28 0.0 0.0 0.00 0.00 0.00 28 1014.1
20260508235012 28 0.0 0.0 0.00 0.00 0.00 29 1014.2
20260508234511 27 0.0 0.0 0.00 0.00 0.00 30 1014.2
20260508234012 27 0.0 0.0 0.00 0.00 0.00 30 1014.3
20260508233511 27 0.0 0.0 0.00 0.00 0.00 27 1014.3
20260508233012 27 0.0 0.0 0.00 0.00 0.00 30 1014.4
20260508232511 27 0.0 0.0 0.00 0.00 0.00 29 1014.4
20260508232011 27 0.0 0.0 0.00 0.00 0.00 29 1014.4
20260508231512 27 0.0 0.0 0.00 0.00 0.00 29 1014.5
20260508230511 27 0.0 0.0 0.00 0.00 0.00 28 1014.6
20260508230012 27 0.0 0.0 0.00 0.00 0.00 31 1014.6
20260508225512 27 0.0 0.0 0.00 0.00 0.00 29 1014.7
20260508225012 27 0.0 0.0 0.00 0.00 0.00 30 1014.8
20260508224512 27 0.0 0.0 0.00 0.00 0.00 31 1014.8
20260508224012 27 0.0 0.0 0.00 0.00 0.00 29 1014.8
20260508222512 27 0.0 0.0 0.00 0.00 0.00 26 1015.0
20260508222011 27 0.0 0.0 0.00 0.00 0.00 31 1014.9
20260508221511 27 0.0 0.0 0.00 0.00 0.00 28 1015.0
20260508220511 27 0.0 0.0 0.00 0.00 0.00 30 1015.1
20260508215512 27 0.0 0.0 0.00 0.00 0.00 31 1015.1
20260508215012 27 0.0 0.0 0.00 0.00 0.00 28 1015.2
20260508214511 27 0.0 0.0 0.00 0.00 0.00 33 1015.2
20260508214012 26 0.0 0.0 0.00 0.00 0.00 27 1015.3
20260508213512 26 0.0 0.0 0.00 0.00 0.00 31 1015.3
20260508213011 27 0.0 0.0 0.00 0.00 0.00 28 1015.4
20260508212511 26 0.0 0.0 0.00 0.00 0.00 27 1015.5
20260508212011 27 0.0 0.0 0.00 0.00 0.00 27 1015.5
20260508211511 26 0.0 0.0 0.00 0.00 0.00 29 1015.5
20260508211012 26 0.0 0.0 0.00 0.00 0.00 32 1015.5
20260508210512 26 0.0 0.0 0.00 0.00 0.00 33 1015.5
20260508210012 26 0.0 0.0 0.00 0.00 0.00 31 1015.5
20260508205512 26 0.0 0.0 0.00 0.00 0.00 32 1015.6
20260508205012 26 0.0 0.0 0.00 0.00 0.00 31 1015.6
20260508204512 25 0.0 0.0 0.00 0.00 0.00 31 1015.7
20260508204011 25 0.0 0.0 0.00 0.00 0.00 30 1015.8
20260508203512 25 0.0 0.0 0.00 0.00 0.00 32 1015.9
20260508203011 25 0.0 0.0 0.00 0.00 0.00 33 1015.8
20260508202512 25 0.0 0.0 0.00 0.00 0.00 29 1015.8
20260508202011 25 0.0 0.0 0.00 0.00 0.00 29 1015.9
20260508201511 25 0.0 0.0 0.00 0.00 0.00 31 1015.9
20260508201011 25 0.0 0.0 0.00 0.00 0.00 32 1015.9
20260508200512 25 0.0 0.0 0.00 0.00 0.00 34 1016.0
20260508200011 25 0.0 0.0 0.00 0.00 0.00 29 1016.0
20260508195511 25 0.0 0.0 0.00 0.00 0.00 32 1016.1
20260508195011 24 0.0 0.0 0.00 0.00 0.00 32 1016.2
20260508194511 24 0.0 0.0 0.00 0.00 0.00 36 1016.2
20260508194011 23 0.0 0.0 0.00 0.00 0.00 34 1016.3
20260508193511 23 0.0 0.0 0.00 0.00 0.00 34 1016.4
20260508193011 23 0.0 0.0 0.00 0.00 0.00 36 1016.4
20260508192511 23 0.0 0.0 0.00 0.00 0.00 37 1016.5
20260508192012 22 0.0 0.0 0.00 0.00 0.00 35 1016.5
20260508191512 22 0.0 0.0 0.00 0.00 0.00 35 1016.6
20260508191012 22 0.0 0.0 0.00 0.00 0.00 36 1016.6
20260508190012 22 0.0 0.0 0.00 0.00 0.00 38 1016.8
20260508185511 22 0.0 0.0 0.00 0.00 0.00 39 1016.8
20260508185012 22 0.0 0.0 0.00 0.00 0.00 43 1016.7
20260508184511 21 0.0 0.0 0.00 0.00 0.00 44 1016.8
20260508184011 21 0.0 0.0 0.00 0.00 0.00 41 1016.8
20260508183512 21 0.0 0.0 0.00 0.00 0.00 47 1016.9
20260508183011 21 0.0 0.0 0.00 0.00 0.00 47 1016.9
20260508182511 20 0.0 0.0 0.00 0.00 0.00 47 1017.0
20260508181511 20 0.0 0.0 0.00 0.00 0.00 46 1017.2
20260508181011 20 0.0 0.0 0.00 0.00 0.00 48 1017.2
20260508180511 19 0.0 0.0 0.00 0.00 0.00 46 1017.2
20260508175511 18 0.0 0.0 0.00 0.00 0.00 48 1017.3
20260508174511 18 0.0 0.0 0.00 0.00 0.00 52 1017.4
20260508174011 18 0.0 0.0 0.00 0.00 0.00 52 1017.5
20260508173012 17 0.0 0.0 0.00 0.00 0.00 46 1017.5
20260508172511 17 0.0 0.0 0.00 0.00 0.00 45 1017.6
20260508172013 17 0.0 0.0 0.00 0.00 0.00 42 1017.6
20260508171511 16 0.0 0.0 0.00 0.00 0.00 35 1017.5
20260508171011 16 0.0 0.0 0.00 0.00 0.00 29 1017.6
20260508170511 16 0.0 0.0 0.00 0.00 0.00 22 1017.6
20260508170011 16 0.0 0.0 0.00 0.00 0.00 17 1017.6
20260508165511 15 0.0 0.0 0.00 0.00 0.00 14 1017.6
20260508165011 15 0.0 0.0 0.00 0.00 0.00 9 1017.6
20260508164511 15 0.0 0.0 0.00 0.00 0.00 4 1017.5
20260508164011 15 0.0 0.0 0.00 0.00 0.00 1 1017.5
20260508163511 14 0.0 0.0 0.00 0.00 0.00 1 1017.5
20260508163011 13 0.0 0.0 0.00 0.00 0.00 1 1017.6
20260508162511 13 0.0 0.0 0.00 0.00 0.00 1 1017.7
20260508162012 12 0.0 0.0 0.00 0.00 0.00 1 1017.8
20260508161511 12 0.0 0.0 0.00 0.00 0.00 1 1017.7
20260508160511 11 0.0 0.0 0.00 0.00 0.00 1 1017.9
20260508160011 11 0.0 0.0 0.00 0.00 0.00 1 1017.9
20260508155511 10 0.0 0.0 0.00 0.00 0.00 1 1017.9
20260508155010 10 0.0 0.0 0.00 0.00 0.00 1 1018.0
20260508154012 10 0.0 0.0 0.00 0.00 0.00 1 1017.9
20260508153512 10 0.0 0.0 0.00 0.00 0.00 1 1018.0
20260508153012 9 0.0 0.0 0.00 0.00 0.00 1 1018.0
20260508152512 9 0.0 0.0 0.00 0.00 0.00 1 1018.1
20260508151511 9 0.0 0.0 0.00 0.00 0.00 1 1018.1
20260508150511 8 0.0 0.0 0.00 0.00 0.00 1 1018.1
20260508150011 8 0.0 0.0 0.00 0.00 0.00 1 1018.1
20260508145510 8 0.0 0.0 0.00 0.00 0.00 1 1018.0
20260508145011 8 0.0 0.0 0.00 0.00 0.00 1 1018.0
20260508144012 8 0.0 0.0 0.00 0.00 0.00 1 1017.8
20260508143511 7 0.0 0.0 0.00 0.00 0.00 1 1017.8
20260508143011 7 0.0 0.0 0.00 0.00 0.00 1 1017.7
20260508142511 7 0.0 0.0 0.00 0.00 0.00 1 1017.7
20260508141010 7 0.0 0.0 0.00 0.00 0.00 1 1017.5
20260508140511 6 0.0 0.0 0.00 0.00 0.00 1 1017.5
20260508140011 6 0.0 0.0 0.00 0.00 0.00 1 1017.5
20260508135011 6 0.0 0.0 0.00 0.00 0.00 1 1017.3
20260508134511 6 0.0 0.0 0.00 0.00 0.00 1 1017.2
20260508134011 6 0.0 0.0 0.00 0.00 0.00 1 1017.1
20260508133511 6 0.0 0.0 0.00 0.00 0.00 1 1017.0
20260508133011 6 0.0 0.0 0.00 0.00 0.00 1 1017.1
20260508132510 6 0.0 0.0 0.00 0.00 0.00 1 1016.9
20260508132010 7 0.0 0.0 0.00 0.00 0.00 1 1017.0
20260508131011 7 0.0 0.0 0.00 0.00 0.00 1 1016.9
20260508130511 7 0.0 0.0 0.00 0.00 0.00 1 1016.8
20260508130011 7 0.0 0.0 0.00 0.00 0.00 1 1016.7
20260508125011 7 0.0 0.0 0.00 0.00 0.00 1 1016.7
20260508124011 7 0.0 0.0 0.00 0.00 0.00 1 1016.6
20260508123511 7 0.0 0.0 0.00 0.00 0.00 1 1016.6
20260508122011 7 0.0 0.0 0.00 0.00 0.00 1 1016.5
20260508121510 7 0.0 0.0 0.00 0.00 0.00 1 1016.6
20260508120511 7 0.0 0.0 0.00 0.00 0.00 1 1016.4
20260508115511 7 0.0 0.0 0.00 0.00 0.00 1 1016.4
20260508115010 7 0.0 0.0 0.00 0.00 0.00 1 1016.3
20260508114511 7 0.0 0.0 0.00 0.00 0.00 1 1016.2
20260508114010 7 0.0 0.0 0.00 0.00 0.00 1 1016.2
20260508113511 7 0.0 0.0 0.00 0.00 0.00 1 1016.2